Location: ??????
(55.7522°N, 37.6156°E)
Time: 17:05:27
(UTC+00:00)

Cosmos 371 Rocket - Pass Details

Date: 14 June 2025
Orbit: 675 x 690 km, 74.0° (Epoch: 12 July)

Event Time Altitude Azimuth Distance (km) Brightness Sun altitude
Exits shadow 22:41:03 13° 198° (SSW) 1,965 4.9 -9.5°
Maximum altitude 22:45:24 75° 115° (ESE) 721 3.4 -9.3°
Drops below altitude 10° 22:50:15 10° 31° (NNE) 2,156 7.4 -9.1°
Sets 22:52:35 0° 29° (NNE) 3,078 8.7 -9.0°
